sat.trackr.live / text

‹ back to catalog

STARLINK-2531

NORAD 48483 · 2021-040BH

PAYLOAD ACTIVE UNKNOWN

§ Identity

Operator
Country
US
Launch date
2021-05-09
Launch site
AFETR
Launch vehicle
Mass (kg)
RCS (m²)

Purposes: comms

External: N2YO · Heavens-Above · Gunter

§ Orbital elements

Epoch: 2026-09-15T18:14:23.663040Z

Period
94.01 min
Inclination
53.1613°
Eccentricity
0.0001113
Mean motion
15.31723289 rev/d
Perigee alt
469.9 km
Apogee alt
471.4 km
Semi-major
6,848.8 km
B*
3.3086e-4
RAAN
29.5427°
Arg perigee
83.2593°
Mean anomaly
276.8535°
Rev number
29,558

§ Raw data

STARLINK-25311 48483U 21040BH  26258.75999610  .00009923  00000+0  33086-3 0  99982 48483  53.1613  29.5427 0001113  83.2593 276.8535 15.31723289295589

JSON: /api/v1/satellites/48483 · /tle

For live sub-satellite position, see the globe view (requires WebGL).

§ Visibility from observer

Set your observer location to see the next 7 days of passes ≥ 10°. The values pass through the URL so the page stays shareable.

No JS? Fill the form by hand. The geolocation button needs JavaScript.